Location: Unspecified
(0.0000°N, 0.0000°E)
Time: 02:00:43
(UTC+00:00)

ISS - Pass Details

Date: 19 February 2013
Orbit: 402 x 404 km, 51.6° (Epoch: 30 May)

Event Time Altitude Azimuth Distance (km) Brightness Sun altitude
Rises 23:47:07 0° 316° (NW) 2,389 - -77.2°
Reaches altitude 10° 23:49:15 10° 310° (NW) 1,530 - -77.5°
Maximum altitude 23:52:35 48° 235° (SW) 575 - -77.9°
Drops below altitude 10° 23:55:58 10° 159° (SSE) 1,549 - -78.2°
Sets 23:58:09 0° 153° (SSE) 2,422 - -78.4°
